TimeEDT,TemperatureF,Dew PointF,Humidity,Sea Level PressureIn,VisibilityMPH,Wind Direction,Wind SpeedMPH,Gust SpeedMPH,PrecipitationIn,Events,Conditions,WindDirDegrees,DateUTC
12:52 AM,73.0,66.9,81,30.15,10.0,SSE,5.8,-,N/A,,Clear,160,2013-09-10 04:52:00
1:52 AM,72.0,68.0,87,30.15,10.0,South,3.5,-,N/A,,Clear,170,2013-09-10 05:52:00
2:52 AM,71.1,68.0,90,30.17,10.0,SSE,5.8,-,N/A,,Clear,160,2013-09-10 06:52:00
3:52 AM,70.0,68.0,93,30.17,10.0,Calm,Calm,-,N/A,,Clear,0,2013-09-10 07:52:00
4:52 AM,70.0,66.9,90,30.18,9.0,Calm,Calm,-,N/A,,Clear,0,2013-09-10 08:52:00
5:52 AM,69.1,66.9,93,30.18,6.0,Calm,Calm,-,N/A,,Clear,0,2013-09-10 09:52:00
6:52 AM,69.1,68.0,96,30.20,6.0,Calm,Calm,-,N/A,,Partly Cloudy,0,2013-09-10 10:52:00
7:52 AM,70.0,69.1,97,30.22,4.0,Calm,Calm,-,N/A,,Partly Cloudy,0,2013-09-10 11:52:00
8:52 AM,75.9,70.0,82,30.23,10.0,Calm,Calm,-,N/A,,Partly Cloudy,0,2013-09-10 12:52:00
9:52 AM,79.0,70.0,74,30.24,10.0,SW,3.5,-,N/A,,Partly Cloudy,220,2013-09-10 13:52:00
10:52 AM,82.9,70.0,65,30.24,10.0,Calm,Calm,-,N/A,,Partly Cloudy,0,2013-09-10 14:52:00
11:52 AM,84.9,66.9,55,30.23,10.0,West,3.5,-,N/A,,Scattered Clouds,270,2013-09-10 15:52:00
12:52 PM,86.0,66.9,53,30.22,10.0,Calm,Calm,-,N/A,,Scattered Clouds,0,2013-09-10 16:52:00
1:52 PM,87.1,66.0,49,30.21,10.0,South,5.8,-,N/A,,Partly Cloudy,170,2013-09-10 17:52:00
2:52 PM,86.0,66.0,51,30.19,10.0,South,3.5,-,N/A,,Scattered Clouds,190,2013-09-10 18:52:00
3:52 PM,89.1,66.0,46,30.17,10.0,Calm,Calm,-,N/A,,Scattered Clouds,0,2013-09-10 19:52:00
4:52 PM,88.0,66.0,48,30.16,10.0,South,6.9,-,N/A,,Scattered Clouds,190,2013-09-10 20:52:00
5:52 PM,87.1,64.9,48,30.15,10.0,SSE,6.9,-,N/A,,Scattered Clouds,160,2013-09-10 21:52:00
6:52 PM,84.9,66.0,53,30.14,10.0,South,8.1,-,N/A,,Scattered Clouds,170,2013-09-10 22:52:00
7:52 PM,81.0,66.0,60,30.16,10.0,South,4.6,-,N/A,,Scattered Clouds,180,2013-09-10 23:52:00
8:52 PM,77.0,66.0,69,30.19,10.0,South,4.6,-,N/A,,Partly Cloudy,180,2013-09-11 00:52:00
9:52 PM,75.9,66.0,71,30.21,10.0,South,4.6,-,N/A,,Partly Cloudy,170,2013-09-11 01:52:00
10:52 PM,75.9,66.9,74,30.22,10.0,South,3.5,-,N/A,,Clear,190,2013-09-11 02:52:00
11:52 PM,73.9,66.9,79,30.21,10.0,South,3.5,-,N/A,,Clear,170,2013-09-11 03:52:00